Location: Lewisville
(33.0462°N, 96.9942°W)
Time: 10:20:38
(UTC-05:00)

ISS - Pass Details

Date: 26 June 2021
Orbit: 419 x 421 km, 51.6° (Epoch: 02 August)

Event Time Altitude Azimuth Distance (km) Brightness Sun altitude
Exits shadow 04:13:20 23° 119° (ESE) 946 -1.9 -21.6°
Drops below altitude 10° 04:15:44 10° 74° (ENE) 1,495 -0.2 -21.3°
Sets 04:18:05 0° 60° (ENE) 2,362 1.3 -21.0°
